Weather observations for the past three days for
McGrath, McGrath Airport
Metric (Imperial)
Date Time (akdt) Wind (kph) Vis. (km) Weather Sky Cond. Temperature (ºC) Relative Humidity Wind Chill (°C) Heat Index (°C) Pressure Precipitation (cm)
Air Dwpt 6 hour altimeter (cm) sea level (mb) 1 hr 3 hr 6 hr
Max. Min.
21 07:53 Calm 16.09 Fair CLR 9.4 7.8 90% 75.97 1013.2
21 06:53 Calm 16.09 Fair CLR 8.9 7.2 89% 75.97 1013.0
21 05:53 N 7 16.09 Fair CLR 7.8 7.2 96% 7 75.95 1012.8
21 04:53 N 6 16.09 Fair CLR 7.8 7.2 96% 75.95 1012.8
21 03:53 Calm 16.09 Fair CLR 8.9 7.8 17.2 8.9 93% 75.95 1012.8
21 02:53 N 7 16.09 Fair CLR 10 8.3 89% 9 75.95 1012.6
21 01:53 Calm 16.09 Fair CLR 11.1 9.4 89% 75.92 1012.5
21 00:53 Calm 16.09 Fair CLR 11.7 10.6 93% 75.92 1012.4
20 23:53 Calm 16.09 A Few Clouds FEW120 13.3 11.1 87% 75.92 1012.3
20 22:53 Calm 16.09 Fair CLR 15 10.6 75% 75.9 1012.1
20 21:53 N 9 16.09 Partly Cloudy SCT110 17.2 8.9 21.1 17.2 58% 75.87 1011.9
20 20:53 N 13 16.09 Fair CLR 17.8 9.4 58% 75.87 1011.8
20 19:53 NE 11 16.09 Fair CLR 18.3 8.3 52% 75.9 1012.0
20 18:53 NE 9 16.09 Overcast FEW090 OVC110 18.9 8.3 50% 75.87 1011.8
20 17:53 Vrbl 9 16.09 A Few Clouds FEW110 17.8 8.9 56% 75.92 1012.6
20 16:53 NE 11 14.48 Fair CLR 19.4 7.8 47% 75.9 1012.2
20 15:53 NE 24 G 44 16.09 Fair CLR 21.1 7.8 23.3 17.2 42% 75.92 1012.3
20 14:53 N 17 16.09 Partly Cloudy SCT070 22.2 8.3 41% 75.92 1012.4
20 13:53 NE 11 16.09 Mostly Cloudy BKN065 21.7 8.9 44% 75.97 1013.0
20 12:53 NE 9 16.09 Fair CLR 21.7 8.9 44% 76.02 1013.6
20 11:53 NE 15 16.09 Fair CLR 20.6 8.9 47% 76.05 1014.2
20 10:53 N 15 16.09 Fair CLR 18.9 8.9 52% 76.1 1014.9
20 09:53 N 11 16.09 A Few Clouds FEW090 17.2 8.9 17.2 6.7 58% 76.15 1015.3
20 08:53 NW 6 16.09 A Few Clouds FEW090 14.4 8.3 67% 76.17 1015.8
20 07:53 Calm 16.09 Fair CLR 12.8 7.8 72% 76.2 1016.2
20 06:53 W 6 16.09 Fair CLR 9.4 6.1 80% 76.23 1016.6
20 05:53 W 6 16.09 Fair CLR 7.2 5 86% 76.23 1016.6
20 04:53 Calm 16.09 Fair CLR 7.8 6.1 89% 76.25 1016.8
20 03:53 Calm 16.09 Fair CLR 8.3 6.7 17.8 7.8 90% 76.23 1016.7
20 02:53 Calm 16.09 Mostly Cloudy BKN100 9.4 7.2 86% 76.23 1016.6
20 01:53 W 7 16.09 Mostly Cloudy BKN110 11.7 7.8 77% 76.2 1016.3
20 00:53 Calm 16.09 Fair CLR 12.2 8.3 77% 76.23 1016.4
19 23:53 Calm 16.09 Fair CLR 13.3 8.3 72% 76.2 1016.2
19 22:53 W 6 16.09 Mostly Cloudy FEW090 BKN110 16.7 7.8 56% 76.23 1016.4
19 21:53 S 6 16.09 Overcast OVC100 17.8 8.3 21.7 17.8 54% 76.2 1016.0
19 20:53 Vrbl 6 16.09 Overcast FEW070 BKN085 OVC110 17.8 7.8 52% 76.17 1015.8
19 19:53 S 9 16.09 Overcast OVC100 18.9 6.1 43% 76.17 1015.7
19 18:53 S 15 16.09 Overcast BKN080 OVC100 18.3 6.1 45% 76.17 1015.6
19 17:53 S 11 16.09 Overcast SCT070 OVC095 20 5 38% 76.15 1015.6
19 16:53 Vrbl 6 16.09 A Few Clouds FEW100 20.6 5 36% 76.15 1015.6
19 15:53 Calm 16.09 Partly Cloudy SCT060 19.4 5.6 20.6 13.3 41% 76.2 1016.0
19 14:53 Vrbl 9 16.09 Partly Cloudy SCT060 18.9 6.1 43% 76.2 1016.3
19 13:53 SE 7 16.09 Partly Cloudy SCT050 SCT150 18.3 6.7 47% 76.23 1016.6
19 12:53 S 7 16.09 A Few Clouds FEW050 FEW120 17.8 6.7 48% 76.25 1016.6
19 11:53 Vrbl 6 16.09 Partly Cloudy FEW050 SCT120 16.1 7.2 56% 76.25 1016.7
19 10:53 Calm 16.09 Mostly Cloudy FEW050 BKN120 14.4 6.7 60% 76.25 1016.9
19 09:53 S 11 16.09 Mostly Cloudy FEW050 BKN120 13.9 7.2 13.9 11.1 64% 76.25 1016.9
19 08:53 S 7 16.09 Mostly Cloudy BKN110 12.2 7.2 72% 76.25 1016.8
19 07:53 S 9 16.09 Overcast OVC080 11.7 6.7 72% 76.25 1016.6
19 06:53 SW 9 16.09 Overcast OVC075 11.7 6.1 69% 76.23 1016.3
19 05:53 SW 7 16.09 Mostly Cloudy BKN070 BKN110 11.7 6.1 69% 76.2 1016.2
19 04:53 SW 19 16.09 Mostly Cloudy BKN095 12.8 5.6 62% 76.17 1015.8
19 03:53 SE 7 16.09 Mostly Cloudy BKN110 13.3 5 19.4 12.8 57% 76.15 1015.5
19 01:53 Calm 16.09 Overcast OVC075 13.9 3.3 49% 76.1 1014.7
19 00:53 Calm 16.09 Overcast BKN080 OVC095 15 2.8 44% 76.05 1014.2
18 23:53 Vrbl 11 16.09 Overcast OVC080 16.1 -0.6 32% 76 1013.4
18 22:53 SW 20 G 31 16.09 Overcast SCT075 OVC095 17.8 2.8 37% 75.92 1012.6
18 21:53 SW 13 16.09 Partly Cloudy SCT075 19.4 5 23.3 18.3 39% 75.84 1011.5
18 20:53 SW 11 16.09 Partly Cloudy SCT085 18.9 5 40% 75.82 1011.1
18 19:53 S 15 G 31 16.09 Fair CLR 20.6 5 36% 75.79 1010.7
18 18:53 SW 9 16.09 Fair CLR 21.1 6.1 38% 75.79 1010.7
18 17:53 S 20 G 31 16.09 Mostly Cloudy FEW070 FEW120 BKN200 21.7 6.7 38% 75.79 1010.8
18 16:53 SW 13 G 30 16.09 Mostly Cloudy SCT070 SCT120 BKN200 22.2 6.1 35% 75.82 1010.9
18 15:53 S 22 G 35 16.09 Mostly Cloudy SCT070 SCT150 BKN250 22.2 6.7 22.8 16.1 37% 75.82 1011.0
18 14:53 S 17 G 28 16.09 Mostly Cloudy SCT070TCU BKN250 22.2 8.9 43% 75.84 1011.4
18 13:53 S 11 16.09 Partly Cloudy SCT070TCU SCT250 21.7 9.4 46% 75.87 1011.7
18 12:53 SW 13 16.09 Partly Cloudy SCT070TCU SCT250 20 10.6 55% 75.9 1012.0
18 11:53 S 13 16.09 Partly Cloudy FEW060 SCT100 SCT250 17.8 11.1 65% 75.92 1012.2
18 10:53 Vrbl 6 16.09 Partly Cloudy FEW050 SCT100 17.8 11.7 68% 75.92 1012.4
18 09:53 S 11 16.09 Partly Cloudy SCT100 16.1 11.7 16.7 8.9 75% 75.92 1012.4
18 08:53 SE 6 16.09 Partly Cloudy SCT100 13.9 11.1 83% 75.92 1012.5
Date Time (akdt) Wind (kph) Vis. (km) Weather Sky Cond. Air Dwpt Max. Min. Relative Humidity Wind Chill (°C) Heat Index (°C) altimeter (cm) sea level (mb) 1 hr 3 hr 6 hr
6 hour
Temperature (ºC) Pressure Precipitation (cm)